[[{"header":{"parameterUnit":"m.s-1","parameterCategory":1,"la1":30.2991,"la2":30.254,"lo1":-89.0895,"lo2":-89.0444,"dy":0.0017,"dx":0.0017,"nx":28,"ny":28,"refTime":"2025-07-17T03:00:00:Z","depth":0,"parameterNumber":2,"parameterNumberName":"U-component_of_WINDS"},"data":[0,0,0,0,0,0,0,0,0,0,0,0,0,0,0,0,0,0,0,0,0,0,0,0,0,0,0,0,0,0,0,0,0,0,0,0,0,0,0,0,0,0,0,0,0,0,0,0,0,0,0,0,0,0,0,0,0,0,-0.673,-0.673,0,-0.6754,-0.6755,-0.6755,-0.6758,-0.6758,-0.6758,-0.6758,-0.6782,-0.6783,-0.6784,0,0,0,0,0,0,0,0,0,0,0,0,0,-0.6687,-0.6688,-0.673,-0.673,-0.673,-0.6754,-0.6755,-0.6755,-0.6759,-0.6758,-0.6758,-0.6758,-0.6782,-0.6783,-0.6784,0,0,0,0,0,0,0,0,0,0,0,0,0,-0.6708,-0.6688,-0.673,-0.6735,-0.6736,-0.6754,-0.6755,-0.6755,-0.6759,-0.6758,-0.6758,-0.6758,-0.6782,-0.6783,-0.6784,-0.6799,0,0,-0.6788,-0.6789,0,0,0,0,0,0,0,0,-0.6707,-0.671,-0.6734,-0.6735,-0.6736,-0.6753,-0.6749,-0.677,-0.6759,-0.675,-0.6758,-0.6757,-0.6773,-0.6775,-0.678,-0.68,-0.6801,-0.6788,-0.6789,-0.679,-0.679,0,0,0,0,0,0,0,-0.6706,-0.6709,-0.674,-0.6734,-0.6735,-0.6737,-0.6739,-0.6753,-0.6763,-0.6751,-0.6751,-0.6754,-0.6773,-0.6779,-0.6781,-0.6801,-0.6788,-0.6789,-0.679,-0.6791,-0.6836,-0.6837,0,0,0,0,0,0,-0.6703,-0.6707,-0.6739,-0.674,-0.672,-0.6738,-0.6741,-0.6748,-0.6763,-0.6765,-0.6754,-0.6754,-0.6777,-0.6779,-0.6782,-0.6801,-0.679,-0.6791,-0.6791,-0.6836,-0.6836,-0.6837,0,0,0,0,0,0,-0.6702,-0.6706,-0.6738,-0.6724,-0.6728,-0.6739,-0.6747,-0.6748,-0.6754,-0.6765,-0.6767,-0.6758,-0.6777,-0.678,-0.6795,-0.6802,-0.6791,-0.6792,-0.6835,-0.6836,-0.6836,-0.6838,0,0,0,0,0,0,-0.6701,-0.6705,-0.6711,-0.6724,-0.6729,-0.675,-0.6747,-0.6749,-0.6756,-0.6756,-0.6769,-0.6771,-0.6777,-0.6793,-0.6796,-0.6803,-0.6793,-0.6835,-0.6835,-0.6836,-0.6838,-0.6839,-0.684,0,0,0,0,0,-0.6699,-0.671,-0.6711,-0.6715,-0.6736,-0.6751,-0.6753,-0.6759,-0.6757,-0.6763,-0.677,-0.6771,-0.68,-0.6794,-0.6798,-0.6806,-0.6834,-0.6835,-0.6836,-0.6837,-0.6839,-0.684,0,0,0,0,0,0,-0.6696,-0.6711,-0.6713,-0.6728,-0.6738,-0.6751,-0.6758,-0.6761,-0.6772,-0.6771,-0.6778,-0.6781,-0.6796,-0.6802,-0.6795,-0.6821,-0.6817,-0.6819,-0.6817,-0.6818,-0.6819,-0.6818,-0.6795,0,0,0,0,0,-0.6697,-0.6708,-0.6721,-0.6733,-0.6738,-0.6748,-0.6754,-0.6758,-0.6769,-0.6773,-0.6782,-0.6792,-0.6804,-0.6811,-0.6823,-0.6839,-0.6842,-0.6846,-0.6847,-0.6848,-0.6849,-0.686,-0.6862,-0.684,-0.684,-0.684,0,0,-0.67,-0.6709,-0.6716,-0.6733,-0.6741,-0.6753,-0.6751,-0.6763,-0.6772,-0.6775,-0.679,-0.6797,-0.6809,-0.6825,-0.6833,-0.6831,-0.6856,-0.6849,-0.685,-0.6851,-0.6861,-0.6863,-0.6865,-0.6841,-0.684,-0.684,0,0,-0.671,-0.6718,-0.6729,-0.6738,-0.6751,-0.6758,-0.6761,-0.6774,-0.6779,-0.6794,-0.6797,-0.6808,-0.6828,-0.6837,-0.6844,-0.686,-0.6861,-0.6863,-0.6869,-0.6879,-0.6881,-0.6883,-0.6889,-0.6892,-0.6865,-0.6865,-0.6865,0,-0.6711,-0.6728,-0.6735,-0.6747,-0.6755,-0.676,-0.6772,-0.678,-0.6796,-0.6802,-0.6799,-0.6826,-0.6834,-0.6853,-0.6857,-0.6862,-0.6866,-0.6862,-0.688,-0.6882,-0.6884,-0.689,-0.6892,-0.6865,-0.6865,-0.6865,-0.6865,0,-0.6729,-0.6742,-0.675,-0.6766,-0.6775,-0.6787,-0.6796,-0.6804,-0.6808,-0.6815,-0.6832,-0.6842,-0.6856,-0.6861,-0.6864,-0.6881,-0.688,-0.6879,-0.6875,-0.6886,-0.6892,-0.6894,-0.6865,-0.6865,-0.6865,-0.6865,0,0,-0.6737,-0.6758,-0.6761,-0.6769,-0.6785,-0.6794,-0.6807,-0.6822,-0.6829,-0.6841,-0.6852,-0.687,-0.687,-0.6878,-0.6883,-0.6891,-0.6905,-0.689,-0.689,-0.6893,-0.6925,-0.6926,-0.6929,-0.6906,-0.6907,-0.6907,-0.6925,0,-0.6749,-0.6773,-0.678,-0.68,-0.6812,-0.6817,-0.6829,-0.684,-0.6847,-0.6859,-0.6867,-0.688,-0.6878,-0.6884,-0.6893,-0.6901,-0.6912,-0.69,-0.6918,-0.6918,-0.6915,-0.6932,-0.6932,-0.6948,-0.6927,-0.6927,-0.6928,0,-0.6766,-0.6779,-0.68,-0.6816,-0.6821,-0.6832,-0.6847,-0.6857,-0.6871,-0.6876,-0.6886,-0.689,-0.6905,-0.69,-0.6921,-0.6913,-0.6921,-0.6926,-0.6927,-0.6929,-0.6924,-0.6935,-0.6954,-0.6956,-0.6931,-0.6931,-0.6931,0,-0.6771,-0.6793,-0.6809,-0.6816,-0.6834,-0.6842,-0.685,-0.6863,-0.6872,-0.6885,-0.6891,-0.6905,-0.6913,-0.6924,-0.6933,-0.6929,-0.6954,-0.6949,-0.6958,-0.6958,-0.6963,-0.6963,-0.6984,-0.6968,-0.6968,-0.6968,-0.6967,0,-0.6784,-0.6797,-0.6812,-0.6821,-0.6837,-0.6846,-0.686,-0.6869,-0.6881,-0.6893,-0.6898,-0.6909,-0.692,-0.6932,-0.6939,-0.6956,-0.6959,-0.6964,-0.6966,-0.6964,-0.6963,-0.6969,-0.6968,-0.6968,-0.6968,-0.6968,-0.6968,0,-0.6791,-0.6801,-0.6819,-0.6836,-0.6841,-0.6851,-0.6866,-0.6876,-0.6884,-0.6899,-0.6904,-0.6916,-0.6932,-0.6942,-0.6961,-0.6966,-0.6985,-0.6986,-0.698,-0.6981,-0.699,-0.6989,-0.7016,-0.702,-0.7001,-0.7001,-0.7001,0,-0.6799,-0.6809,-0.6828,-0.6836,-0.6845,-0.6858,-0.6868,-0.6878,-0.6888,-0.6905,-0.6913,-0.6929,-0.6943,-0.6967,-0.6979,-0.6994,-0.6996,-0.7004,-0.6998,-0.6996,-0.6997,-0.6996,-0.6998,-0.7005,-0.7005,-0.7005,-0.7005,0,-0.6812,-0.6817,-0.6831,-0.6847,-0.6858,-0.6871,-0.6884,-0.6891,-0.6903,-0.6914,-0.693,-0.6941,-0.6962,-0.6978,-0.6995,-0.7003,-0.7007,-0.7007,-0.701,-0.7009,-0.7005,-0.7008,-0.6984,-0.7007,-0.7006,-0.7006,-0.7006,-0.7006,-0.682,-0.683,-0.6845,-0.6861,-0.6872,-0.6884,-0.6895,-0.6905,-0.6919,-0.6937,-0.6942,-0.696,-0.6975,-0.6998,-0.7007,-0.7021,-0.702,-0.7024,-0.7025,-0.7026,-0.7027,-0.7003,-0.7024,-0.7024,-0.7024,-0.7024,-0.7024,0,-0.6834,-0.6844,-0.6859,-0.6877,-0.689,-0.6893,-0.6908,-0.6918,-0.6933,-0.6947,-0.6961,-0.698,-0.6997,-0.701,-0.7027,-0.7036,-0.7038,-0.704,-0.7039,-0.7042,-0.7026,-0.7022,-0.7038,-0.7038,-0.7038,-0.7038,-0.7038,-0.7038,-0.6843,-0.686,-0.6868,-0.6891,-0.6902,-0.6919,-0.6928,-0.694,-0.6951,-0.6973,-0.6987,-0.6995,-0.7009,-0.7028,-0.7043,-0.7047,-0.7053,-0.7055,-0.7059,-0.7044,-0.7043,-0.7041,-0.7037,-0.7056,-0.7056,-0.7073,-0.7073,-0.7073]},{"header":{"parameterUnit":"m.s-1","parameterCategory":1,"la1":30.2991,"la2":30.254,"lo1":-89.0895,"lo2":-89.0444,"dy":0.0017,"dx":0.0017,"nx":28,"ny":28,"refTime":"2025-07-17T03:00:00:Z","depth":0,"parameterNumber":3,"parameterNumberName":"V-component_of_WINDS"},"data":[0,0,0,0,0,0,0,0,0,0,0,0,0,0,0,0,0,0,0,0,0,0,0,0,0,0,0,0,0,0,0,0,0,0,0,0,0,0,0,0,0,0,0,0,0,0,0,0,0,0,0,0,0,0,0,0,0,0,6.1452,6.1453,0,6.1564,6.1565,6.1566,6.1524,6.1521,6.1519,6.1516,6.1625,6.163,6.1635,0,0,0,0,0,0,0,0,0,0,0,0,0,6.1192,6.1197,6.1451,6.1453,6.1454,6.1564,6.1565,6.1567,6.1524,6.1521,6.1518,6.1515,6.1623,6.163,6.1636,0,0,0,0,0,0,0,0,0,0,0,0,0,6.1304,6.1198,6.1451,6.1446,6.1447,6.1563,6.1565,6.1567,6.1525,6.1521,6.1517,6.1514,6.1621,6.1629,6.1637,6.1762,0,0,6.1661,6.1664,0,0,0,0,0,0,0,0,6.1298,6.1314,6.1446,6.1447,6.1448,6.1526,6.1513,6.1632,6.1526,6.1495,6.1516,6.1512,6.1595,6.1605,6.1634,6.1767,6.1772,6.1662,6.1666,6.167,6.1672,0,0,0,0,0,0,0,6.129,6.1309,6.1496,6.1448,6.1449,6.1436,6.1448,6.1536,6.1565,6.1498,6.1495,6.1509,6.1595,6.1626,6.1636,6.1774,6.1661,6.1668,6.1673,6.1676,6.2012,6.2016,0,0,0,0,0,0,6.1283,6.1303,6.1492,6.1499,6.1362,6.1444,6.1457,6.1505,6.1564,6.1569,6.1512,6.1507,6.1615,6.1627,6.164,6.1788,6.167,6.1677,6.1682,6.2008,6.2013,6.2017,0,0,0,0,0,0,6.1278,6.13,6.1488,6.14,6.1423,6.1452,6.1506,6.1509,6.1541,6.1575,6.1579,6.154,6.1612,6.1629,6.1732,6.1791,6.1681,6.1688,6.2003,6.2009,6.2015,6.2087,0,0,0,0,0,0,6.127,6.1299,6.1349,6.1402,6.1428,6.158,6.151,6.1514,6.1555,6.1549,6.1602,6.1607,6.161,6.172,6.174,6.18,6.1694,6.1997,6.2005,6.2013,6.208,6.2095,6.2108,0,0,0,0,0,6.1261,6.1364,6.1352,6.1375,6.1492,6.1584,6.1599,6.1602,6.156,6.1609,6.1631,6.1605,6.1782,6.1731,6.1753,6.1816,6.1994,6.2003,6.2012,6.2073,6.2092,6.2108,0,0,0,0,0,0,6.1316,6.1371,6.1358,6.1482,6.1529,6.1577,6.1639,6.1623,6.1681,6.1673,6.1672,6.1685,6.179,6.1814,6.1756,6.1939,6.1881,6.1895,6.192,6.1938,6.1952,6.1943,6.1701,0,0,0,0,0,6.1343,6.1416,6.1459,6.1564,6.1588,6.161,6.165,6.1649,6.1696,6.1715,6.1745,6.179,6.1855,6.1898,6.1961,6.2083,6.2092,6.2137,6.2152,6.2163,6.2175,6.2238,6.2257,6.2048,6.2048,6.2047,0,0,6.1398,6.1437,6.1483,6.1576,6.1612,6.1684,6.1627,6.1706,6.1759,6.1727,6.1826,6.1849,6.1899,6.2012,6.2063,6.2034,6.2235,6.2175,6.2184,6.219,6.2249,6.2269,6.2287,6.2054,6.2053,6.2052,0,0,6.1536,6.1575,6.1664,6.1702,6.1758,6.1771,6.1793,6.1843,6.1857,6.1957,6.1934,6.1995,6.2109,6.2145,6.2178,6.2327,6.2304,6.2347,6.2421,6.2483,6.2499,6.2514,6.2564,6.2582,6.2358,6.2359,6.2359,0,6.1597,6.1708,6.1712,6.1794,6.1833,6.1809,6.1898,6.1933,6.2006,6.2033,6.2001,6.2141,6.2173,6.2292,6.2328,6.2357,6.2379,6.234,6.2497,6.2512,6.2525,6.2573,6.2592,6.2363,6.2363,6.2362,6.2362,0,6.1778,6.1855,6.1921,6.1993,6.204,6.2125,6.2139,6.2186,6.218,6.2195,6.2295,6.2333,6.2401,6.2429,6.2424,6.2547,6.2527,6.2497,6.2438,6.255,6.2594,6.2613,6.237,6.2368,6.2367,6.2366,0,0,6.1954,6.2027,6.205,6.2081,6.214,6.2198,6.228,6.2349,6.2387,6.2437,6.2504,6.26,6.2571,6.2608,6.2607,6.2661,6.2772,6.2623,6.2624,6.2647,6.2906,6.2927,6.2948,6.2758,6.2762,6.2765,6.29,0,6.2094,6.2241,6.2246,6.2378,6.2447,6.2424,6.2494,6.2536,6.2553,6.2611,6.2628,6.2695,6.2654,6.2676,6.2728,6.2748,6.2824,6.2738,6.2817,6.282,6.2803,6.2972,6.2995,6.3122,6.2918,6.2921,6.2923,0,6.2277,6.2334,6.2474,6.2521,6.255,6.2614,6.2675,6.2732,6.2778,6.2786,6.2827,6.2817,6.2897,6.2837,6.2946,6.2887,6.292,6.2934,6.2939,6.2944,6.2877,6.2979,6.3162,6.318,6.2951,6.2949,6.2947,0,6.2388,6.2499,6.2596,6.2624,6.2682,6.2727,6.2752,6.2795,6.2834,6.2887,6.2912,6.2973,6.3006,6.3052,6.3057,6.3014,6.3165,6.3106,6.3171,6.3171,6.3202,6.32,6.339,6.3228,6.3227,6.3227,6.3227,0,6.2542,6.2628,6.2646,6.2706,6.28,6.2803,6.2895,6.2917,6.2954,6.3015,6.2999,6.3056,6.3061,6.3118,6.3123,6.321,6.3226,6.3232,6.3231,6.3232,6.3231,6.3251,6.3242,6.3232,6.3231,6.323,6.3229,0,6.2681,6.2697,6.2801,6.2847,6.286,6.2927,6.2965,6.302,6.3034,6.3111,6.3129,6.3151,6.3218,6.3228,6.3307,6.3309,6.3413,6.3405,6.3398,6.3396,6.3459,6.3452,6.3667,6.3694,6.3516,6.3518,6.3519,0,6.2777,6.2843,6.2895,6.2936,6.2964,6.303,6.307,6.3075,6.3117,6.3173,6.3221,6.3286,6.3338,6.3446,6.3467,6.3526,6.3517,6.3588,6.3526,6.3523,6.3515,6.351,6.3515,6.36,6.3602,6.3603,6.3605,0,6.2946,6.295,6.301,6.3073,6.3122,6.317,6.3216,6.325,6.326,6.3308,6.3377,6.3418,6.3497,6.3561,6.3619,6.3642,6.3624,6.3625,6.3642,6.3642,6.3634,6.3636,6.3428,6.3619,6.3618,6.3617,6.3616,6.3615,6.3064,6.312,6.3166,6.3232,6.3267,6.331,6.3363,6.3384,6.3442,6.3509,6.3507,6.3582,6.3623,6.3699,6.3727,6.3783,6.3759,6.3786,6.3792,6.3797,6.3802,6.3627,6.3794,6.3793,6.3793,6.3793,6.3792,0,6.323,6.3257,6.3319,6.3384,6.3435,6.3416,6.3465,6.3508,6.3575,6.3616,6.3667,6.3745,6.3806,6.3832,6.3891,6.3931,6.3924,6.3946,6.3942,6.3947,6.3821,6.3799,6.3951,6.3951,6.3951,6.3951,6.3951,6.3951,6.3321,6.3414,6.3423,6.3531,6.3558,6.3632,6.3661,6.3699,6.3732,6.3819,6.387,6.3887,6.3921,6.3983,6.4037,6.4042,6.4064,6.4089,6.4091,6.3972,6.3956,6.3941,6.392,6.4094,6.4095,6.4211,6.4213,6.4213]}]]